STARLINK-1800, 46700

Orbit data source: Space-Track

STARLINK-1800, 46700 is a payload satellite owned by SpaceX/Seattle (US) in LEO that was launched on Sun, 18 Oct 2020 UTC via an FALCON 9 launch vehicle from the Air Force Eastern Test Range (AFETR). Payload-class satellites include a variety of spacecraft equipped with specific instruments for various scientific and technological missions. These include communications satellites like Starlink; space stations such as the ISS; scientific satellites like the Hubble; Earth observation satellites from companies like Planet Labs, Umbra, and HawkEye 360; GPS; miniature CubeSats for education and research; and military/defense satellites.

Loading next visibility...
Identifier
46700, 2020-073AG
Orbit
LEO
Last TLE update
15 hours ago
Origin
Manufacturer
SpaceX/Seattle
Mission
Operational Commercial Communications
Bus & Motor
STARLINK, Unknown motor
Mass
260 kg wet, ~248 kg dry
Launch date (UTC)
2020-10-18 (5 years ago)
Launch vehicle
FALCON 9
Launch site
Air Force Eastern Test Range (AFETR)
Object type
Payload
Rocket body
Debris
Shape & HBR
Box + 1 Pan, 8.86 m
Radar Cross Section
13.562 m², Large (>1 m²)

Expand to show TLE details & history

TLE from 15 hours ago
0 STARLINK-1800
1 46700U 20073AG  25181.54339512  .00001538  00000-0  12212-3 0  9996
2 46700  53.0558 308.5461 0000974  82.3468 277.7631 15.06391818258913
Epoch: 2025-06-30T13:02Z
TLE epoch observation values (Epoch: 2025-06-30T13:02:29.338Z)
Latitude
-0.00007°
Longitude
-165.92788°
Altitude
548.025 km
Speed
7.589 km/s
True Right ascension
20h 34m 11s
True Declination
0° 00' 00"
Sunlit
Object was in full shadow at epoch
Visualization orbit readout
Latitude
18.47701°
Longitude
-3.21095°
Altitude
547.366 km
Speed
7.591 km/s
Apparent Right ascension
05h 50m 52s
Apparent Declination
-10° 31' 54"
Sunlit
Object is in daylight
Visualization observer readout
Local Sidereal Time
15:41:17
Azimuth
306.691° NW
Elevation
-48.937°
Doppler factor
1
Orbital elements
Apogee altitude
548.182 km
Perigee altitude
546.833 km
Semi-major axis
6,925.644 km
Eccentricity
0.0001
Inclination
53.0558°
RAAN
308.5461°
Arg. of periapsis
82.3468°
True anomaly
Unknown
Mean anomaly
277.7631°
Eccentric anomaly
Unknown
Mean motion
3.76576 °/min
Orbital period
95.6 mins
BSTAR
0.00012212
Loading maneuver chart data...
Loading SW <> Apogee altitude chart data...
Loading historical data...
Loading historical data...
Loading historical data...
Loading historical data...
Loading historical data...
Loading historical data...
Loading historical data...

STARLINK-1800 Visibility forecast

Observer location: undefined°, undefined°

Span
Click to sort rows by Start time (UTC) header in descending order
Start Az.
Max El. time (UTC)
Max El. Az.
Max El.
End time (UTC)
End Az.
4 mins2025-07-01 09:53:53.716Z160.839° S2025-07-01 09:55:53.716Z126.31° SE17.359°2025-07-01 09:57:53.716Z92.41° ESE
6 mins2025-07-01 11:32:53.716Z250.168° W2025-07-01 11:34:53.716Z314.128° NW41.319°2025-07-01 11:38:53.716Z44.41° NE
4 mins2025-07-01 13:13:53.716Z319.23° NNW2025-07-01 13:14:53.716Z337.063° NNW16.869°2025-07-01 13:17:53.716Z25.176° NE
5 mins2025-07-01 16:34:53.716Z346.049° N2025-07-01 16:36:53.716Z29.484° NE23.395°2025-07-01 16:39:53.716Z80.742° E
6 mins2025-07-01 18:13:53.716Z299.112° NW2025-07-01 18:16:53.716Z194.106° SSW40.366°2025-07-01 18:19:53.716Z144.993° SSE
|